DateTimeUTC,F1_A11,F1_S11,BsB_S11,BsG_S11,BsR_S11,BbsB_S11,BbsG_S11,BbsR_S11,BaB_A11,BaG_A11,BaR_A11,Tu_S11,T_S11,Uu_S11,U_S11,P_S11,T1_A11
2021-05-29T21:00:00Z,00000200,20000000,,,,,,,0000.03,-000.12,-000.08,18.4,25.1,05.0,03.3,0666.1,31.0
2021-05-29T21:01:00Z,00000200,20000000,,,,,,,0000.19,0000.17,0000.44,18.4,25.1,05.0,03.3,0666.1,31.0
2021-05-29T21:02:00Z,00000200,20000000,,,,,,,-000.39,-000.09,-000.37,18.4,25.1,05.0,03.3,0666.1,31.0
2021-05-29T21:03:00Z,00000200,60000000,,,,,,,0000.50,0000.40,0000.65,18.4,25.1,05.0,03.3,0666.1,31.0
2021-05-29T21:04:00Z,00000200,40000000,0001.77,0000.92,0000.70,0000.38,0000.05,0000.26,0000.96,0000.77,0000.48,18.5,24.9,05.0,03.4,0667.0,31.0
2021-05-29T21:05:00Z,00000200,00000000,0001.39,0000.89,0000.72,0000.01,0000.30,0000.44,0000.38,0000.27,0000.02,18.6,24.9,05.1,03.4,0667.1,31.0
2021-05-29T21:06:00Z,00000200,00000000,0001.87,0001.10,0000.90,0001.02,0000.37,0000.38,0000.56,0000.75,0000.23,18.6,24.9,05.0,03.4,0667.1,31.0
2021-05-29T21:07:00Z,00000200,00000000,0001.84,0001.29,0000.58,0000.22,0000.34,0000.09,0000.54,0000.29,0000.55,18.6,24.9,05.1,03.4,0667.2,31.0
2021-05-29T21:08:00Z,00000200,00000000,0001.92,0001.18,0000.76,0000.61,0000.11,0000.13,0000.54,0000.49,0000.43,18.6,24.9,05.1,03.5,0667.2,31.0
2021-05-29T21:09:00Z,00000200,00000000,0001.68,0000.99,0000.61,0000.16,0000.36,0000.24,0000.77,0000.44,0000.30,18.6,24.8,05.1,03.5,0667.1,31.0
2021-05-29T21:10:00Z,00000200,00000000,0001.66,0001.18,0000.71,-000.20,0000.13,0000.34,0000.29,0000.43,0000.19,18.6,24.8,05.1,03.5,0667.1,31.0
2021-05-29T21:11:00Z,00000200,00000000,0002.01,0001.07,0000.75,0000.59,0000.54,0000.35,0000.59,0000.29,0000.33,18.5,24.8,05.1,03.4,0667.1,31.0
2021-05-29T21:12:00Z,00000200,00000000,0001.97,0001.27,0000.54,-000.49,0000.28,0000.27,0000.67,0000.76,0000.54,18.5,24.8,05.0,03.4,0667.1,31.0
2021-05-29T21:13:00Z,00000200,00000000,0001.94,0001.25,0000.84,-000.32,0000.41,0000.25,0000.22,0000.15,0000.07,18.5,24.8,05.0,03.4,0667.1,31.0
2021-05-29T21:14:00Z,00000200,00000000,0001.85,0001.03,0000.72,0000.69,0000.20,0000.22,0001.12,0000.88,0000.52,18.5,24.8,05.0,03.4,0667.1,31.0
2021-05-29T21:15:00Z,00000200,00000000,0001.42,0001.28,0000.99,0000.01,0000.25,0000.34,0000.27,0000.24,0000.18,18.5,24.8,05.0,03.4,0667.1,31.1
2021-05-29T21:16:00Z,00000200,00000000,0001.46,0001.09,0000.56,-000.13,0000.51,0000.24,0000.45,0000.78,0000.60,18.5,24.8,05.0,03.4,0667.1,31.0
2021-05-29T21:17:00Z,00000200,00000000,0001.72,0001.19,0000.92,0000.08,0000.41,0000.40,0000.56,0000.65,0000.38,18.5,24.8,05.0,03.4,0667.1,31.0
2021-05-29T21:18:00Z,00000200,00000000,0001.43,0001.40,0000.47,0000.16,0000.08,-000.03,0000.67,0000.64,0000.33,18.5,24.8,05.1,03.5,0667.0,31.0
2021-05-29T21:19:00Z,00000200,00000000,0001.20,0001.19,0000.79,0000.41,0000.37,0000.11,0000.61,0000.09,0000.61,18.5,24.8,05.0,03.4,0667.1,31.0
2021-05-29T21:20:00Z,00000200,00000000,0002.06,0001.12,0000.59,0000.86,0000.35,0000.15,0000.30,0000.55,0000.14,18.5,24.8,05.1,03.5,0667.0,31.0
2021-05-29T21:21:00Z,00000200,00000000,0002.19,0001.31,0000.96,0000.44,0000.29,0000.52,0000.54,0000.67,0000.28,18.5,24.8,05.0,03.4,0667.0,31.0
2021-05-29T21:22:00Z,00000200,00000000,0001.53,0001.15,0000.90,0000.09,0000.27,0000.31,0000.66,0000.25,0000.52,18.5,24.8,05.0,03.4,0667.0,31.0
2021-05-29T21:23:00Z,00000200,00000000,0001.59,0000.91,0000.65,0000.20,0000.17,0000.17,0000.72,0000.64,0000.61,18.5,24.8,05.0,03.4,0667.0,31.0
2021-05-29T21:24:00Z,00000200,00000000,0002.13,0001.13,0000.86,0000.29,0000.51,0000.24,0000.48,0000.63,0000.30,18.5,24.7,05.1,03.5,0667.0,31.0
2021-05-29T21:25:00Z,00000200,00000000,0001.06,0000.94,0000.87,0000.03,0000.38,-000.15,0000.65,0000.53,0000.35,18.5,24.7,05.1,03.5,0667.0,31.0
2021-05-29T21:26:00Z,00000200,00000000,0001.58,0001.35,0000.64,0000.40,0000.42,0000.28,0000.62,0001.03,0000.44,18.5,24.7,05.0,03.4,0667.0,31.0
2021-05-29T21:27:00Z,00000200,00000000,0001.24,0000.80,0001.08,0000.24,0000.43,0000.15,0000.44,0000.00,0000.41,18.5,24.7,05.0,03.4,0667.0,31.0
2021-05-29T21:28:00Z,00000200,00000000,0002.43,0000.79,0000.65,0000.39,0000.30,-000.00,0000.64,0000.90,0000.46,18.5,24.7,05.0,03.4,0666.9,31.0
2021-05-29T21:29:00Z,00000200,00000000,0001.18,0001.19,0000.74,-000.33,0000.40,0000.13,0000.73,0000.03,0000.25,18.5,24.7,04.9,03.3,0666.9,31.0
2021-05-29T21:30:00Z,00000200,00000000,0001.99,0001.37,0000.58,0000.43,0000.28,0000.14,0000.26,0000.25,0000.07,18.5,24.7,04.9,03.3,0666.9,31.0
2021-05-29T21:31:00Z,00000200,00000000,0002.75,0001.24,0000.58,0000.20,0000.39,0000.29,0000.66,0000.70,0000.55,18.5,24.7,04.8,03.3,0666.9,31.0
2021-05-29T21:32:00Z,00000200,00000000,0002.25,0001.08,0000.97,0000.06,0000.16,0000.46,0000.37,0000.34,0000.39,18.5,24.7,04.8,03.3,0666.9,31.0
2021-05-29T21:33:00Z,00000200,00000000,0001.84,0001.10,0000.65,0000.06,0000.42,0000.29,0000.44,0000.12,0000.48,18.5,24.7,04.8,03.3,0666.8,31.0
2021-05-29T21:34:00Z,00000200,00000000,0001.85,0001.01,0000.44,0000.04,0000.31,0000.39,0000.60,0000.53,0000.11,18.5,24.7,04.8,03.3,0666.8,31.0
2021-05-29T21:35:00Z,00000200,00000000,0001.54,0000.95,0000.69,0000.06,0000.16,0000.67,0000.46,0000.71,0000.45,18.5,24.7,04.7,03.2,0666.8,31.0
2021-05-29T21:36:00Z,00000200,00000000,0001.81,0001.05,0001.00,0000.32,0000.52,-000.07,0000.52,0000.33,0000.23,18.5,24.7,04.6,03.2,0666.8,31.0
2021-05-29T21:37:00Z,00000200,00000000,0001.76,0000.96,0000.73,0000.05,0000.48,0000.28,0000.29,0000.39,0000.11,18.5,24.7,04.7,03.2,0666.8,31.0
2021-05-29T21:38:00Z,00000200,00000000,0001.36,0000.99,0000.63,0000.92,0000.19,0000.25,0000.78,0000.24,0000.49,18.4,24.7,04.6,03.2,0666.8,31.0
2021-05-29T21:39:00Z,00000200,00000000,0001.61,0001.01,0000.71,0000.18,0000.42,0000.24,0000.27,0000.57,0000.23,18.4,24.7,04.6,03.1,0666.8,31.0
2021-05-29T21:40:00Z,00000200,00000000,0001.15,0001.11,0000.66,-000.11,0000.19,-000.10,0000.71,0000.37,0000.58,18.4,24.7,04.5,03.1,0666.8,31.0
2021-05-29T21:41:00Z,00000200,00000000,0001.89,0001.17,0000.64,0000.06,0000.32,0000.20,0000.23,0000.70,0000.07,18.4,24.7,04.5,03.1,0666.8,31.0
2021-05-29T21:42:00Z,00000200,00000000,0001.11,0001.01,0000.75,0000.32,0000.26,0000.26,0000.59,0000.30,0000.36,18.4,24.7,04.5,03.1,0666.7,31.0
2021-05-29T21:43:00Z,00000200,00000000,0001.88,0001.00,0000.54,-000.16,0000.17,0000.04,0000.56,0000.50,0000.50,18.4,24.7,04.5,03.1,0666.7,31.0
2021-05-29T21:44:00Z,00000200,00000000,0001.29,0001.07,0000.50,0000.08,0000.32,0000.39,0000.59,0000.50,0000.27,18.4,24.7,04.4,03.0,0666.7,31.0
2021-05-29T21:45:00Z,00000200,00000000,0001.21,0000.98,0000.53,0000.29,0000.35,0000.09,0000.65,0000.53,0000.73,18.4,24.6,04.4,03.0,0666.7,31.0
2021-05-29T21:46:00Z,00000200,00000000,0001.96,0001.06,0000.83,0000.03,0000.41,0000.36,0000.33,0000.21,0000.19,18.4,24.6,04.4,03.0,0666.7,31.0
2021-05-29T21:47:00Z,00000200,00000000,0001.35,0001.11,0000.96,-000.14,0000.28,0000.23,0000.65,0000.67,0000.25,18.4,24.6,04.4,03.0,0666.7,31.0
2021-05-29T21:48:00Z,00000200,00000000,0001.99,0000.96,0000.83,0000.27,0000.34,0000.25,0000.73,0000.86,0000.22,18.4,24.6,04.3,02.9,0666.7,31.0
2021-05-29T21:49:00Z,00000200,00000000,0001.44,0001.21,0000.80,0000.56,0000.45,0000.39,0000.22,0000.04,0000.52,18.4,24.6,04.4,03.0,0666.7,31.0
2021-05-29T21:50:00Z,00000200,00000000,0002.41,0001.06,0000.82,0000.32,0000.30,0000.40,0000.39,0000.32,-000.07,18.4,24.6,04.3,02.9,0666.7,31.0
2021-05-29T21:51:00Z,00000200,00000000,0001.41,0001.13,0000.95,0000.43,0000.30,0000.01,0000.49,0000.61,0000.69,18.4,24.6,04.3,02.9,0666.7,31.0
2021-05-29T21:52:00Z,00000200,00000000,0002.05,0001.06,0000.94,0000.25,0000.23,0000.16,0000.25,0000.40,0000.04,18.4,24.6,04.2,02.9,0666.7,31.0
2021-05-29T21:53:00Z,00000200,00000000,0002.09,0000.94,0001.00,0000.25,0000.37,0000.28,0000.99,0000.68,0000.58,18.4,24.6,04.2,02.8,0666.6,31.0
2021-05-29T21:54:00Z,00000200,00000000,0002.43,0001.19,0000.83,0000.44,0000.44,0000.16,0000.34,0000.41,0000.15,18.4,24.6,04.2,02.9,0666.6,31.0
2021-05-29T21:55:00Z,00000200,00000000,0001.70,0001.30,0000.51,0000.37,0000.44,0000.33,0000.63,0000.18,0000.54,18.4,24.6,04.2,02.8,0666.6,31.0
2021-05-29T21:56:00Z,00000200,00000000,0001.93,0001.19,0000.60,0000.21,0000.27,0000.04,0000.50,0000.20,0000.24,18.3,24.6,04.2,02.9,0666.6,31.0
2021-05-29T21:57:00Z,00000200,40000000,,,,,,,0000.30,0000.83,0000.52,18.4,24.6,04.4,03.0,0666.6,31.0
2021-05-29T21:58:00Z,00000200,60000000,,,,,,,-000.21,-000.19,-000.37,18.1,24.8,04.4,02.9,0665.6,31.0
2021-05-29T21:59:00Z,00000200,20000000,,,,,,,-000.00,-000.20,-000.05,18.1,24.9,04.2,02.8,0665.6,31.0
